Tracking 19638 objects as of 19-May-2019
HD Live streaming from Space Station
objects crossing your sky now

RADUGA 1M-1

Track RADUGA 1M-1 now!
RADUGA 1M-1 is classified as:


NORAD ID: 32373
Int'l Code: 2007-058A
Perigee: 36,021.9 km
Apogee: 36,057.9 km
Inclination: 4.5 °
Period: 1,448.7 minutes
Semi major axis: 42410 km
RCS: 33.55 m2 (large)
Launch date: December 9, 2007
Source: Commonwealth of Independent States (former USSR) (CIS)
Launch site: TYURATAM MISSILE AND SPACE COMPLEX (TTMTR)

Military communication
aabbcc
Your satellite tracking list
Your tracking list is empty




NASA's NSSDC Master Catalog

Two Line Element Set (TLE):
1 32373U 07058A   19139.76247563 -.00000330  00000-0  00000+0 0  9997
2 32373   4.5003  70.5475 0004238 294.1080 281.2604  0.99400094 42612
Source of the keplerian elements: AFSPC